STARLINK-3127, 49450

Orbit data source: Space-Track

STARLINK-3127, 49450 is a payload satellite owned by SpaceX/Seattle (US) in LEO that was launched on Sat, 13 Nov 2021 UTC via an FALCON 9 launch vehicle from the Air Force Eastern Test Range (AFETR). Payload-class satellites include a variety of spacecraft equipped with specific instruments for various scientific and technological missions. These include communications satellites like Starlink; space stations such as the ISS; scientific satellites like the Hubble; Earth observation satellites from companies like Planet Labs, Umbra, and HawkEye 360; GPS; miniature CubeSats for education and research; and military/defense satellites.

Loading next visibility...
Identifier
49450, 2021-104AU
Orbit
LEO
Country
Flag of USUS
Related business
Manufacturer
SpaceX/Seattle
Mission
Operational Commercial Communications
Bus & Motor
STARLINK, Unknown motor
Mass
290 kg wet, ~270 kg dry
Launch date (UTC)
2021-11-13 (5 years ago)
Launch vehicle
FALCON 9
Launch site
Air Force Eastern Test Range (AFETR)
Object type
Payload
Rocket body
Debris
Shape & HBR
Box + 1 Pan, 10.1 m
Radar Cross Section
13.562 m², Large (>1 m²)

Expand to show TLE details & history
Last TLE update: 1 week ago

TLE from 1 week ago
0 STARLINK-3127
1 49450U 21104AU  26154.27661028 -.00003351  00000-0 -19244-3 0  9997
2 49450  53.1862 194.9292 0001099  67.9162 292.1946 15.08860070251955
Epoch: 2026-06-03T06:38Z
TLE epoch observation values (Epoch: 2026-06-03T06:38:19.128Z)
Latitude
-0.00004°
Longitude
-156.38808°
Altitude
540.289 km
Speed
7.594 km/s
True Right ascension
12h 59m 43s
True Declination
0° 00' 00"
Sunlit
Object was in full shadow at epoch
Visualization orbit readout
Latitude
Unknown
Longitude
Unknown
Altitude
Unknown
Speed
Unknown
Apparent Right ascension
Unknown
Apparent Declination
Unknown
Sunlit
N/A
Visualization observer readout
Local Sidereal Time
13:18:16
Azimuth
Unknown
Elevation
Unknown
Doppler factor
Unknown
Orbital elements
Apogee altitude
540.692 km
Perigee altitude
539.172 km
Semi-major axis
6,918.069 km
Eccentricity
0.00011
Inclination
53.1862°
RAAN
194.9292°
Arg. of periapsis
67.9162°
True anomaly
292.18294°
Mean anomaly
292.1946°
Eccentric anomaly
292.18877°
Mean motion
3.77195 °/min
Orbital period
95.44 mins
BSTAR
-0.00019244
Loading maneuver chart data...
Computing Atmospheric mass density...
Loading historical data...
Loading historical data...
Loading historical data...
Loading historical data...
Loading historical data...
Loading historical data...
Loading historical data...

Documentation

Showing up to 5 results
|